Location: Newark
(54.2500°N, 9.1833°E)
Time: 01:43:07
(UTC+00:00)

Vanguard 2 Rocket - Pass Details

Date: 12 December 2019
Orbit: 554 x 3326 km, 32.9° (Epoch: 23 January)

Event Time Altitude Azimuth Distance (km) Brightness Sun altitude
Rises 20:33:00 0° 253° (WSW) 5,367 11.3 -46.4°
Reaches altitude 10° 20:39:52 10° 227° (SW) 3,607 10.0 -47.3°
Enters shadow 20:40:09 10° 226° (SW) 3,549 10.0 -47.3°
